logo tempoitalia

Diretta Meteo Jaipur-Sanganer, Indialunedì 31 agosto ore 10:30

Mappa
Sereno 29 °C Foschia 24 Ore: T.min 26 T.max 33
Ponente Ovest Km/h 20.3 Punto di rugiada: 20 °C Umidità: 58% Visibilità: 4 Km
Il sole sorge alle: 06:05 Il sole tramonta alle: 18:48
31 Agosto 2026 10:30 tempo osservato: Foschia Foschia 29 58 1008 vento: Nord O 20.3
31 Agosto 2026 09:30 tempo osservato: Foschia Foschia 28 65 1008 vento: Nord O 20.3
31 Agosto 2026 09:00 tempo osservato: Foschia Foschia 27 65 1008 vento: Nord O 22.2
31 Agosto 2026 08:30 tempo osservato: Foschia Foschia 27 69 1008 vento: Nord O/NO 20.3
31 Agosto 2026 08:00 tempo osservato: Foschia Foschia 27 69 1007 vento: Nord O 20.3
31 Agosto 2026 07:30 tempo osservato: Foschia Foschia 26 73 1007 vento: Nord O/NO 18.5
31 Agosto 2026 07:00 tempo osservato: Foschia Foschia 26 69 1007 vento: Nord O 16.7
31 Agosto 2026 06:30 tempo osservato: Foschia Foschia 26 69 1007 vento: Nord O 16.7
31 Agosto 2026 06:00 tempo osservato: Foschia Foschia 26 69 1006 vento: Nord O 16.7
31 Agosto 2026 05:30 tempo osservato: Foschia Foschia 26 69 1006 vento: Nord O 16.7
31 Agosto 2026 05:00 tempo osservato: Foschia Foschia 26 69 1006 vento: Nord O 16.7
31 Agosto 2026 04:30 tempo osservato: Foschia Foschia 26 69 1006 vento: Nord O 14.8
31 Agosto 2026 04:00 tempo osservato: Foschia Foschia 27 65 1005 vento: Nord O 16.7
31 Agosto 2026 03:30 tempo osservato: Foschia Foschia 27 65 1005 vento: Nord O 18.5
31 Agosto 2026 03:00 tempo osservato: Foschia Foschia 27 65 1005 vento: Nord O 16.7
31 Agosto 2026 02:30 tempo osservato: Foschia Foschia 27 65 1005 vento: Nord O 18.5
31 Agosto 2026 02:00 tempo osservato: Foschia Foschia 28 61 1005 vento: Nord O 18.5
31 Agosto 2026 01:30 tempo osservato: Foschia Foschia 28 61 1006 vento: Nord O 20.3
31 Agosto 2026 01:00 tempo osservato: Foschia Foschia 28 61 1006 vento: Nord O 18.5
31 Agosto 2026 00:30 tempo osservato: Foschia Foschia 28 65 1006 vento: Nord O 18.5
30 Agosto 2026 23:30 tempo osservato: Foschia Foschia 28 65 1006 vento: Nord O/SO 14.8
30 Agosto 2026 23:00 tempo osservato: Foschia Foschia 28 65 1006 vento: Nord O 11.1
30 Agosto 2026 22:30 tempo osservato: Foschia Foschia 28 65 1006 vento: Nord O/SO 13
30 Agosto 2026 22:00 tempo osservato: Foschia Foschia 28 65 1006 vento: Nord O 13
30 Agosto 2026 21:30 tempo osservato: Foschia Foschia 28 65 1006 vento: Nord O 9.3
30 Agosto 2026 21:00 tempo osservato: Foschia Foschia 29 62 1006 vento: Nord O 14.8
30 Agosto 2026 20:30 tempo osservato: Foschia Foschia 29 62 1006 vento: Nord O/SO 16.7
30 Agosto 2026 20:00 tempo osservato: Foschia Foschia 30 55 1006 vento: Nord SO 14.8
30 Agosto 2026 19:30 tempo osservato: Foschia Foschia 30 58 1005 vento: Nord O/SO 16.7
30 Agosto 2026 19:00 tempo osservato: Foschia Foschia 30 58 1005 vento: Nord O/SO 20.3
30 Agosto 2026 18:30 tempo osservato: Foschia Foschia 31 55 1004 vento: Nord SO 20.3
30 Agosto 2026 18:00 tempo osservato: Foschia Foschia 32 49 1004 vento: Nord S/SO 16.7
30 Agosto 2026 17:30 tempo osservato: Foschia Foschia 32 49 1004 vento: Nord SO 18.5
30 Agosto 2026 17:00 tempo osservato: Foschia Foschia 32 52 1004 vento: Nord S/SO 14.8
30 Agosto 2026 16:30 tempo osservato: Foschia Foschia 33 49 1004 vento: Nord S/SO 14.8
30 Agosto 2026 16:00 tempo osservato: Foschia Foschia 33 46 1004 vento: Nord S/SO 14.8
30 Agosto 2026 15:30 tempo osservato: Foschia Foschia 32 52 1005 vento: Nord SO 14.8
30 Agosto 2026 15:00 tempo osservato: Foschia Foschia 33 52 1005 vento: Nord S/SO 14.8
30 Agosto 2026 14:30 tempo osservato: Foschia Foschia 32 52 1005 vento: Nord SO 14.8
30 Agosto 2026 14:00 tempo osservato: Foschia Foschia 32 52 1005 vento: Nord O/SO 13
30 Agosto 2026 13:30 tempo osservato: Foschia Foschia 32 55 1006 vento: Nord SO 9.3
30 Agosto 2026 13:00 tempo osservato: Foschia Foschia 32 52 1006 vento: Nord SO 11.1
30 Agosto 2026 12:30 tempo osservato: Foschia Foschia 31 55 1006 vento: Nord O 16.7
30 Agosto 2026 12:00 tempo osservato: Foschia Foschia 31 58 1006 vento: Nord O 14.8
30 Agosto 2026 11:30 tempo osservato: Foschia Foschia 30 62 1007 vento: Nord O/NO 13